This demonstration page uses our WeatherBlox Daily Observations layout. Learn more.

41.86663, -103.66717

Hourly Observations for May 20, 2019

Temp ( °F °C ) Dew Point ( °F °C ) Humidity (%) Winds ( mph kmh ) Pressure ( in mb ) Visibility ( mi km ) Precip ( " mm )
12:41 am 00:41 Cloudy 41 5 33 0.6 73 73 E 15 24 30.06 1018 10 16.09344 0 0
12:53 am 00:53 Cloudy 41 5 34 1.1 76 76 E 12 19 30 1016 10 16.09344 0 0
1:53 am 01:53 Cloudy with Light Rain 39 3.9 36 2.2 89 89 E 14 22 30 1016 10 16.09344 0.01 0.254
2:53 am 02:53 Cloudy with Light Rain 39 3.9 35 1.7 86 86 E 13 20 30 1016 10 16.09344 0.001 0.001
3:40 am 03:40 Cloudy with Light Rain 37 3 37 3 100 100 E 10 17 30.06 1018 7 11.265408 0 0
3:53 am 03:53 Cloudy with Light Rain 38 3.3 37 2.8 97 97 E 10 17 30 1016 10 16.09344 0.01 0.254
4:53 am 04:53 Cloudy 38 3.3 37 2.8 97 97 E 13 20 29.97 1015 9 14.484096 0.01 0.254
5:53 am 05:53 Cloudy 38 3.3 36 2.2 93 93 E 13 20 29.97 1015 10 16.09344 0 0
6:06 am 06:06 Cloudy 38 3.3 36 2.2 93 93 E 10 17 30.03 1017 9 14.484096 0 0
6:49 am 06:49 Cloudy with Light Rain 37 3 37 3 100 100 E 9 15 30.03 1017 2.5 4.02336 0.001 0.001
6:53 am 06:53 Cloudy with Light Rain 37 2.8 37 2.8 100 100 ESE 12 19 29.97 1015 3 4.828032 0.001 0.001
7:53 am 07:53 Cloudy with Light Rain 38 3.3 37 2.8 97 97 ESE 14 22 29.97 1015 5 8.04672 0.01 0.254
8:01 am 08:01 Cloudy with Light Rain 38 3.3 38 3.3 100 100 SE 14 22 30.03 1017 5 8.04672 0.001 0.001
8:53 am 08:53 Cloudy with Light Rain 38 3.3 38 3.3 100 100 ESE 15 24 30 1016 4 6.437376 0.01 0.254
9:04 am 09:04 Cloudy with Mist and Fog 38 3.3 38 3.3 100 100 ESE 15 24 30.03 1017 2.5 4.02336 0.001 0.001
9:15 am 09:15 Cloudy with Light Rain 38 3.3 38 3.3 100 100 ESE 13 20 30.06 1018 1.75 2.816352 0.001 0.001
9:18 am 09:18 Cloudy with Light Rain 38 3.3 38 3.3 100 100 ESE 13 20 30.03 1017 2 3.218688 0.001 0.001
9:23 am 09:23 Cloudy with Light Rain 38 3.3 38 3.3 100 100 ESE 13 20 30.03 1017 3 4.828032 0.001 0.001
9:53 am 09:53 Cloudy with Light Rain 39 3.9 38 3.3 96 96 ESE 15 24 29.97 1015 3 4.828032 0.001 0.001
10:53 am 10:53 Cloudy with Light Rain 40 4.4 39 3.9 97 97 ESE 16 26 29.94 1014 9 14.484096 0.01 0.254
11:14 am 11:14 Cloudy with Light Rain 40 4.4 39 3.9 97 97 ESE 16 26 29.97 1015 6 9.656064 0.001 0.001
11:22 am 11:22 Cloudy with Light Rain 39 4 39 4 100 100 ESE 20 31 29.97 1015 4 6.437376 0 0
11:53 am 11:53 Cloudy with Light Rain 39 3.9 39 3.9 100 100 ESE 15 24 29.94 1014 5 8.04672 0.01 0.254
12:22 pm 12:22 Cloudy with Light Rain 39 4 39 4 100 100 ESE 14 22 29.97 1015 3 4.828032 0 0
12:26 pm 12:26 Cloudy with Light Rain 40 4.4 40 4.4 100 100 ESE 15 24 29.97 1015 2.5 4.02336 0.01 0.254
12:43 pm 12:43 Cloudy with Light Rain 41 5 40 4.4 96 96 ESE 15 24 29.97 1015 5 8.04672 0.02 0.508
12:53 pm 12:53 Cloudy with Rain 40 4.4 39 3.9 97 97 ESE 17 28 29.91 1013 5 8.04672 0.03 0.762
1:25 pm 13:25 Cloudy with Rain 39 3.9 38 3.3 96 96 ESE 15 24 29.97 1015 2 3.218688 0.08 2.032
1:39 pm 13:39 Cloudy with Light Rain 39 3.9 37 2.8 93 93 ESE 16 26 29.97 1015 4 6.437376 0.12 3.048
1:53 pm 13:53 Cloudy with Light Rain 39 3.9 38 3.3 96 96 ESE 16 26 29.94 1014 9 14.484096 0.12 3.048
2:06 pm 14:06 Cloudy with Light Rain 37 3 37 3 100 100 E 13 20 30 1016 4 6.437376 0 0
2:21 pm 14:21 Cloudy with Light Rain 38 3.3 38 3.3 100 100 E 13 20 30 1016 2.5 4.02336 0.02 0.508
2:28 pm 14:28 Cloudy with Mist and Fog 38 3.3 38 3.3 100 100 E 12 19 30 1016 6 9.656064 0.02 0.508
2:53 pm 14:53 Cloudy with Light Rain 37 2.8 36 2.2 96 96 ENE 9 15 29.91 1013 5 8.04672 0.02 0.508
3:29 pm 15:29 Cloudy with Light Rain 39 3.9 38 3.3 96 96 ENE 13 20 29.97 1015 6 9.656064 0.01 0.254
3:53 pm 15:53 Cloudy with Rain 38 3.3 38 3.3 100 100 NE 10 17 29.91 1013 5 8.04672 0.05 1.27
4:01 pm 16:01 Cloudy with Light Rain 38 3.3 38 3.3 100 100 NE 8 13 30 1016 5 8.04672 0.02 0.508
4:21 pm 16:21 Cloudy with Light Rain 40 4.4 39 3.9 97 97 ESE 10 17 29.94 1014 5 8.04672 0.04 1.016
4:37 pm 16:37 Cloudy with Light Rain 40 4.4 38 3.3 93 93 ESE 12 19 29.94 1014 4 6.437376 0.07 1.778
4:53 pm 16:53 Cloudy with Light Rain 40 4.4 39 3.9 97 97 E 13 20 29.88 1012 7 11.265408 0.07 1.778
5:50 pm 17:50 Cloudy 39 4 37 3 93 93 ENE 13 20 29.94 1014 10 16.09344 0 0
5:51 pm 17:51 Cloudy 39 3.9 38 3.3 96 96 ENE 13 20 29.88 1012 10 16.09344 0.01 0.254
6:30 pm 18:30 Cloudy with Light Rain 39 3.9 38 3.3 96 96 ENE 14 22 29.94 1014 10 16.09344 0.001 0.001
6:49 pm 18:49 Cloudy with Light Rain 39 4 37 3 93 93 ENE 12 19 29.94 1014 3 4.828032 0.001 0.001
6:53 pm 18:53 Cloudy with Light Rain 39 3.9 39 3.9 100 100 ENE 13 20 29.88 1012 2.5 4.02336 0.01 0.254
7:01 pm 19:01 Cloudy with Light Rain 39 3.9 39 3.9 100 100 E 13 20 29.94 1014 3 4.828032 0.001 0.001
7:17 pm 19:17 Cloudy with Mist and Fog 40 4.4 39 3.9 97 97 E 14 22 29.94 1014 4 6.437376 0.01 0.254
7:36 pm 19:36 Cloudy with Mist and Fog 40 4.4 39 3.9 97 97 E 15 24 29.94 1014 5 8.04672 0.01 0.254
7:53 pm 19:53 Cloudy with Mist and Fog 39 3.9 39 3.9 100 100 ENE 13 20 29.88 1012 4 6.437376 0.01 0.254
8:08 pm 20:08 Cloudy 39 4 39 4 100 100 E 10 17 29.94 1014 10 16.09344 0 0
8:26 pm 20:26 Cloudy 39 4 37 3 93 93 E 14 22 29.94 1014 10 16.09344 0 0
8:34 pm 20:34 Cloudy 39 3.9 38 3.3 96 96 E 15 24 29.94 1014 10 16.09344 0 0
8:48 pm 20:48 Cloudy 39 4 37 3 93 93 E 14 22 29.94 1014 10 16.09344 0 0
8:53 pm 20:53 Cloudy 39 3.9 38 3.3 96 96 E 13 20 29.88 1012 10 16.09344 0 0
9:34 pm 21:34 Cloudy with Light Rain 38 3.3 37 2.8 97 97 E 15 24 29.94 1014 9 14.484096 0.03 0.762
9:53 pm 21:53 Cloudy with Light Rain 37 2.8 36 2.2 96 96 E 13 20 29.88 1012 10 16.09344 0.04 1.016
10:53 pm 22:53 Cloudy with Light Snow 36 2.2 35 1.7 97 97 ENE 9 15 29.88 1012 6 9.656064 0.05 1.27
11:53 pm 23:53 Cloudy with Light Rain 35 1.7 35 1.7 100 100 E 7 11 29.85 1011 8 12.874752 0.08 2.032

Powered by AerisWeather